Date String (YYYY-MM-DD hh:mm:ss) UTC,Instrument flags,absolute air pressure of the measurement (hPa),sample flow rate (lpm),inlet stack bypass flow (lpm),air temperature of the measurement (°C),ambient temperature measured by the external sensor (°C),aerosol sample conditioner tube jacket temperature (°C),OPC LED temperature (°C),internal box temperature (°C),relative humidity of the measurement (%),span deviation,mass concentration of particles derived from Lorenz-Mie calculation of OPC scattering (μg/m³),mass concentration of particles derived from Lorenz-Mie calculation of OPC scattering (μg/m³),mass concentration of particles derived from Lorenz-Mie calculation of OPC scattering (μg/m³)
DateTimeUTC,F1_M11,P_M11,Q1_M11,Q2_M11,T1_M11,T2_M11,T3_M11,T4_M11,T5_M11,U1_M11,ZSPAN_M11,X0_M11,X2_M11,X1_M11
2023-06-12 02:00:00,SystemResetWarning,0830.6,5.00,000.00,029.4,025.5,000.0,038.1,030.7,30.6,0000.0,0010.94,0004.45,0003.87
2023-06-12 02:01:00,SystemResetWarning,0830.6,5.01,000.00,029.4,025.9,000.0,038.1,030.7,30.9,0000.0,0010.09,0004.40,0003.84
2023-06-12 02:02:00,SystemResetWarning,0830.7,4.99,000.00,029.4,026.3,000.0,038.1,030.8,31.0,0000.0,0009.97,0004.34,0003.80
2023-06-12 02:03:00,SystemResetWarning,0830.7,4.99,000.00,029.4,026.6,000.0,038.0,030.8,31.0,0000.0,0009.92,0004.31,0003.76
2023-06-12 02:04:00,SystemResetWarning,0830.8,5.00,000.00,029.4,026.9,000.0,038.0,030.8,30.9,0000.0,0009.94,0004.26,0003.73
2023-06-12 02:05:00,SystemResetWarning,0830.9,5.00,000.00,029.4,027.1,000.0,038.0,030.8,30.5,0000.0,0009.02,0004.18,0003.69
2023-06-12 02:06:00,SystemResetWarning,0831.1,5.00,000.00,029.4,027.3,000.0,038.0,030.8,29.9,0000.0,0008.18,0004.13,0003.65
2023-06-12 02:07:00,SystemResetWarning,0831.2,5.01,000.00,029.4,027.4,000.0,038.0,030.9,29.6,0000.0,0008.23,0004.11,0003.60
2023-06-12 02:08:00,SystemResetWarning,0831.3,5.00,000.00,029.4,027.6,000.0,038.0,030.9,29.7,0000.0,0008.51,0004.04,0003.56
2023-06-12 02:09:00,SystemResetWarning,0831.3,4.99,000.00,029.4,027.7,000.0,038.0,030.9,29.7,0000.0,0008.50,0003.98,0003.52
2023-06-12 02:10:00,SystemResetWarning,0831.3,4.99,000.00,029.4,027.7,000.0,038.0,031.0,30.0,0000.0,0008.51,0003.96,0003.49
2023-06-12 02:11:00,SystemResetWarning,0831.4,5.00,000.00,029.4,027.8,000.0,038.0,031.0,30.5,0000.0,0008.45,0003.94,0003.46
2023-06-12 02:12:00,SystemResetWarning,0831.4,5.01,000.00,029.4,027.9,000.0,038.0,031.0,30.6,0000.0,0008.20,0003.92,0003.45
2023-06-12 02:13:00,SystemResetWarning,0831.5,5.00,000.00,029.5,027.9,000.0,038.0,031.0,31.0,0000.0,0008.08,0003.93,0003.44
2023-06-12 02:14:00,SystemResetWarning,0831.4,5.00,000.00,029.5,028.0,000.0,038.0,031.1,30.8,0000.0,0008.23,0003.95,0003.44
2023-06-12 02:15:00,SystemResetWarning,0831.5,5.01,000.00,029.5,028.0,000.0,038.0,031.1,30.6,0000.0,0008.29,0003.94,0003.42
2023-06-12 02:16:00,SystemResetWarning,0831.5,5.00,000.00,029.5,028.1,000.0,038.0,031.1,29.4,0000.0,0008.30,0003.93,0003.41
2023-06-12 02:17:00,SystemResetWarning,0831.5,4.99,000.00,029.6,028.1,000.0,038.0,031.2,28.9,0000.0,0008.71,0003.93,0003.39
2023-06-12 02:18:00,SystemResetWarning,0831.5,4.99,000.00,029.6,028.2,000.0,038.1,031.2,29.1,0000.0,0008.64,0003.91,0003.40
2023-06-12 02:19:00,SystemResetWarning,0831.5,5.00,000.00,029.6,028.2,000.0,038.1,031.2,28.9,0000.0,0008.74,0003.95,0003.39
2023-06-12 02:20:00,SystemResetWarning,0831.6,5.01,000.00,029.6,028.2,000.0,038.1,031.2,28.8,0000.0,0009.50,0004.03,0003.39
2023-06-12 02:21:00,SystemResetWarning,0831.5,5.01,000.00,029.6,028.2,000.0,038.1,031.2,29.1,0000.0,0009.84,0004.02,0003.39
2023-06-12 02:22:00,SystemResetWarning,0831.6,5.00,000.00,029.7,028.2,000.0,038.1,031.2,29.1,0000.0,0009.81,0004.01,0003.38
2023-06-12 02:23:00,SystemResetWarning,0831.6,5.00,000.00,029.7,028.3,000.0,038.1,031.3,29.0,0000.0,0009.95,0004.01,0003.36
2023-06-12 02:24:00,SystemResetWarning,0831.6,5.00,000.00,029.7,028.3,000.0,038.2,031.3,28.6,0000.0,0009.96,0004.01,0003.35
2023-06-12 02:25:00,SystemResetWarning,0831.6,5.00,000.00,029.7,028.3,000.0,038.2,031.3,28.6,0000.0,0009.97,0004.02,0003.33
2023-06-12 02:26:00,SystemResetWarning,0831.6,5.00,000.00,029.7,028.3,000.0,038.2,031.3,28.7,0000.0,0010.12,0004.08,0003.32
2023-06-12 02:27:00,SystemResetWarning,0831.6,5.00,000.00,029.7,028.3,000.0,038.2,031.4,28.7,0000.0,0010.21,0004.12,0003.33
2023-06-12 02:28:00,SystemResetWarning,0831.6,5.00,000.00,029.8,028.4,000.0,038.2,031.4,28.7,0000.0,0010.07,0004.16,0003.34
2023-06-12 02:29:00,SystemResetWarning,0831.7,5.00,000.00,029.8,028.4,000.0,038.3,031.4,28.7,0000.0,0010.33,0004.22,0003.35
2023-06-12 02:30:00,SystemResetWarning,0831.7,5.01,000.00,029.8,028.4,000.0,038.3,031.4,28.3,0000.0,0010.25,0004.29,0003.37
2023-06-12 02:31:00,SystemResetWarning,0831.7,5.01,000.00,029.8,028.4,000.0,038.3,031.4,28.2,0000.0,0009.50,0004.26,0003.37
2023-06-12 02:32:00,SystemResetWarning,0831.6,5.01,000.00,029.8,028.4,000.0,038.3,031.4,28.4,0000.0,0009.02,0004.26,0003.37
2023-06-12 02:33:00,SystemResetWarning,0831.6,5.00,000.00,029.8,028.4,000.0,038.3,031.4,28.5,0000.0,0009.13,0004.30,0003.38
2023-06-12 02:34:00,SystemResetWarning,0831.6,4.99,000.00,029.8,028.4,000.0,038.3,031.4,28.5,0000.0,0008.99,0004.32,0003.37
2023-06-12 02:35:00,SystemResetWarning,0831.6,4.99,000.00,029.8,028.4,000.0,038.3,031.4,28.4,0000.0,0008.71,0004.31,0003.37
2023-06-12 02:36:00,SystemResetWarning,0831.7,4.99,000.00,029.8,028.4,000.0,038.3,031.4,28.4,0000.0,0009.44,0004.29,0003.38
2023-06-12 02:37:00,SystemResetWarning,0831.7,5.00,000.00,029.8,028.4,000.0,038.4,031.4,28.3,0000.0,0009.15,0004.22,0003.37
2023-06-12 02:38:00,SystemResetWarning,0831.7,5.00,000.00,029.8,028.4,000.0,038.4,031.4,28.3,0000.0,0009.17,0004.20,0003.37
2023-06-12 02:39:00,SystemResetWarning,0831.7,5.00,000.00,029.8,028.4,000.0,038.4,031.4,28.4,0000.0,0009.19,0004.14,0003.37
2023-06-12 02:40:00,SystemResetWarning,0831.7,5.00,000.00,029.9,028.4,000.0,038.4,031.5,28.3,0000.0,0008.88,0004.12,0003.36
2023-06-12 02:41:00,SystemResetWarning,0831.7,5.00,000.00,029.9,028.4,000.0,038.4,031.5,28.2,0000.0,0008.68,0004.04,0003.35
2023-06-12 02:42:00,SystemResetWarning,0831.7,5.00,000.00,029.9,028.4,000.0,038.4,031.5,28.3,0000.0,0008.55,0004.00,0003.34
2023-06-12 02:43:00,SystemResetWarning,0831.7,5.00,000.00,029.9,028.4,000.0,038.4,031.5,28.5,0000.0,0009.09,0004.02,0003.34
2023-06-12 02:44:00,SystemResetWarning,0831.7,5.01,000.00,029.9,028.4,000.0,038.4,031.5,28.4,0000.0,0009.82,0004.03,0003.34
2023-06-12 02:45:00,SystemResetWarning,0831.7,5.01,000.00,029.9,028.4,000.0,038.4,031.5,28.4,0000.0,0009.91,0004.00,0003.35
2023-06-12 02:46:00,SystemResetWarning,0831.7,5.00,000.00,029.9,028.4,000.0,038.4,031.5,28.3,0000.0,0010.24,0003.98,0003.35
2023-06-12 02:47:00,SystemResetWarning,0831.7,5.00,000.00,029.9,028.5,000.0,038.5,031.5,28.3,0000.0,0009.52,0003.97,0003.34
2023-06-12 02:48:00,SystemResetWarning,0831.7,4.99,000.00,029.9,028.5,000.0,038.5,031.6,28.2,0000.0,0009.62,0003.96,0003.35
2023-06-12 02:49:00,SystemResetWarning,0831.7,5.00,000.00,030.0,028.5,000.0,038.5,031.6,28.2,0000.0,0009.46,0003.93,0003.35
2023-06-12 02:50:00,SystemResetWarning,0831.7,4.99,000.00,030.0,028.1,000.0,038.5,031.5,28.5,0000.0,0009.29,0003.95,0003.34
2023-06-12 02:51:00,SystemResetWarning,0831.7,4.99,000.00,030.0,025.9,000.0,038.4,031.5,28.7,0000.0,0009.31,0003.97,0003.35
2023-06-12 02:52:00,SystemResetWarning,0831.7,5.01,000.00,029.9,024.8,000.0,038.3,031.4,28.5,0000.0,0009.40,0004.00,0003.37
2023-06-12 02:53:00,SystemResetWarning,0831.6,5.01,000.00,029.9,024.8,000.0,038.3,031.1,28.9,0000.0,0009.52,0004.02,0003.37
2023-06-12 02:54:00,SystemResetWarning,0831.7,5.00,000.00,029.7,025.2,000.0,038.3,030.9,28.9,0000.0,0009.16,0004.01,0003.38
2023-06-12 02:55:00,SystemResetWarning,0831.7,5.00,000.00,029.6,025.6,000.0,038.3,030.9,29.1,0000.0,0008.49,0003.97,0003.37
2023-06-12 02:56:00,SystemResetWarning,0831.7,5.00,000.00,029.6,026.0,000.0,038.3,030.9,29.3,0000.0,0008.31,0003.97,0003.37
2023-06-12 02:57:00,SystemResetWarning,0831.7,5.00,000.00,029.6,026.4,000.0,038.2,030.9,29.5,0000.0,0007.93,0004.00,0003.38
2023-06-12 02:58:00,SystemResetWarning,0831.7,4.99,000.00,029.6,026.8,000.0,038.2,031.0,30.0,0000.0,0007.93,0004.01,0003.39
2023-06-12 02:59:00,SystemResetWarning,0831.6,5.00,000.00,029.6,027.0,000.0,038.2,031.0,30.1,0000.0,0007.65,0004.02,0003.39
